Location: ?????????
(38.5999°N, 22.7695°E)
Time: 09:34:41
(UTC+00:00)

Cosmos 2154 Rocket - Pass Details

Date: 18 August 2024
Orbit: 964 x 997 km, 82.9° (Epoch: 07 September)

Event Time Altitude Azimuth Distance (km) Brightness Sun altitude
Rises 02:25:47 0° 356° (N) 3,668 7.4 -15.1°
Reaches altitude 10° 02:28:20 10° 359° (N) 2,715 6.7 -14.7°
Maximum altitude 02:34:29 64° 81° (E) 1,063 4.5 -13.6°
Drops below altitude 10° 02:40:36 10° 163° (SSE) 2,693 6.2 -12.6°
Sets 02:43:07 0° 166° (SSE) 3,637 6.9 -12.2°
